Content
SEND FEEDBACK

Daily
Averages
Monthly
Summary
United States of America

SOUTH FORK INDIAN RUN, WEST VIRGINIA


Home > North America > United States > West Virginia
Elevation: 95 feet     Latitude: 39 30N     Longitude: 078 18W

WEATHER
 
SELECT A DAY
Number of Records: 198,779;   Date Range: 1/1/95 - 8/12/14
 
SHARE

PRINT THIS DATA

[ ← Previous Day ]
WEATHER ALMANAC - FEBRUARY 13, 2013
[ Next Day → ]
[ °C ]   °F
Weather ElementAverageHighLow
Temperature35 °F42.1 °F (11:53 am)28.9 °F (3:53 am)
Dewpoint28.5 °F32 °F (5:53 pm)23 °F (1:53 am)
Humidity78.6 %93 % (8:51 pm)51 % (11:53 am)
Barometer29.78 in29.93 in (1:53 am)29.68 in (4:53 pm)
Wind Speed3.7 mph9.2 mph (4:53 pm)
Weather ElementAverage
Visibility5.5 mi
Wind DirectionSSE (162.3 °)

Weather ElementTotal
Precipitation0.25 in
Heating Degree Days29.5 (Base 65)
Averaged from 35 records on February 13, 2013
WEATHER CONDITIONS BREAKOUT
WIND DIRECTION BREAKOUT
WEATHER BY HOUR - FEBRUARY 13, 2013
[ °C ]   °F
Local TimeTemperatureDewpointHumidityBarometerVisibilityWind DirectionWind SpeedGust SpeedPrecipitationEventsConditions
1:53 AM32.0 °F23.0 °F69 %29.93 in10.0 miCalmClear
2:53 AM30.9 °F23.0 °F72 %29.91 in10.0 miCalmClear
3:53 AM28.9 °F23.0 °F78 %29.90 in10.0 miCalmClear
4:53 AM30.9 °F24.1 °F76 %29.90 in10.0 miNorth (360°)4.6 mphClear
5:53 AM30.0 °F23.0 °F75 %29.89 in9.0 miCalmClear
6:53 AM28.9 °F23.0 °F78 %29.88 in8.0 miCalmMostly Cloudy
7:53 AM30.9 °F24.1 °F76 %29.87 in7.0 miCalmOvercast
8:53 AM34.0 °F25.0 °F70 %29.87 in7.0 miCalmOvercast
9:53 AM37.9 °F25.0 °F60 %29.85 in10.0 miCalmOvercast
10:53 AM39.9 °F26.1 °F58 %29.83 in10.0 miNE (50°)4.6 mphOvercast
11:53 AM42.1 °F25.0 °F51 %29.78 in10.0 miVariable4.6 mphScattered Clouds
12:53 PM41.0 °F26.1 °F55 %29.77 in10.0 miEast (90°)4.6 mphOvercast
1:53 PM41.0 °F26.1 °F55 %29.74 in10.0 miNNE (30°)4.6 mphOvercast
2:53 PM41.0 °F27.0 °F57 %29.70 in10.0 miNE (40°)4.6 mph0.00 inOvercast
3:53 PM41.0 °F27.0 °F57 %29.69 in10.0 miVariable3.5 mphOvercast
4:53 PM39.9 °F28.9 °F65 %29.68 in8.0 miNNE (30°)9.2 mphOvercast
5:53 PM37.0 °F32.0 °F82 %29.69 in5.0 miNorth (10°)8.1 mph0.00 inSnowLight Snow
6:22 PM35.6 °F32.0 °F87 %29.69 in3.0 miNorth (360°)8.1 mph0.01 inOvercast
6:43 PM35.6 °F32.0 °F87 %29.71 in2.5 miNorth (360°)6.9 mph0.01 inSnowLight Snow
6:53 PM35.1 °F32.0 °F89 %29.72 in2.0 miNorth (360°)5.8 mph0.02 inSnowLight Snow
7:01 PM35.6 °F32.0 °F87 %29.71 in1.8 miNorth (360°)6.9 mph0.00 inSnowLight Snow
7:19 PM33.8 °F30.2 °F87 %29.72 in1.2 miNorth (360°)5.8 mph0.02 inSnowLight Snow
7:53 PM34.0 °F30.9 °F89 %29.74 in1.2 miNorth (360°)5.8 mph0.04 inSnowLight Snow
8:00 PM33.8 °F30.2 °F87 %29.73 in1.2 miNorth (360°)6.9 mph0.00 inSnowLight Snow
8:40 PM33.8 °F30.2 °F87 %29.74 in1.0 miNNW (330°)5.8 mph0.03 inSnowLight Snow
8:51 PM33.8 °F32.0 °F93 %29.74 in1.5 miNNW (340°)4.6 mph0.03 inSnowLight Snow
8:53 PM34.0 °F32.0 °F92 %29.76 in1.8 miNNW (330°)4.6 mph0.03 inSnowLight Snow
9:00 PM33.8 °F32.0 °F93 %29.74 in1.8 miNNW (330°)4.6 mph0.01 inSnowLight Snow
9:08 PM33.8 °F32.0 °F93 %29.74 in1.5 miNNW (340°)3.5 mph0.01 inSnowLight Snow
9:23 PM33.8 °F32.0 °F93 %29.75 in2.0 miNorth (350°)3.5 mph0.02 inSnowLight Snow
9:53 PM34.0 °F32.0 °F92 %29.76 in2.5 miCalm0.02 inOvercast
10:30 PM33.8 °F30.2 °F87 %29.76 in1.2 miCalmMostly Cloudy
10:47 PM33.8 °F32.0 °F93 %29.77 in3.0 miNW (320°)3.5 mphScattered Clouds
10:53 PM35.1 °F32.0 °F89 %29.78 in6.0 miCalmMostly Cloudy
11:53 PM34.0 °F32.0 °F92 %29.78 in4.0 miSSW (210°)3.5 mphOvercast
Hourly data recorded from KMRB, located miles away from South Fork Indian Run, West Virginia







STORIES FROM OUR PARTNERS